Regional Weather Roundup
Issued by NWS

Home | Current Version | Previous Version | Graphics & Text | Print | Product List | Glossary On
Versions: 1 2 3 4 5 6 7 8 9 10 11 12 13 14 15 16 17 18 19 20 21 22 23 24 25 26 27 28 29 30 31 32 33 34 35 36 37 38 39 40 41 42 43 44 45 46 47 48 49 50
000
ASUS45 KSLC 171110
RWRUT

UTAH REGIONAL WEATHER ROUNDUP
NATIONAL WEATHER SERVICE SALT LAKE CITY UT
500 AM MDT WED SEP 17 2014

UTZ001>011-023>025-171200-

NORTHERN UTAH

CITY           SKY/WX    TMP DP  RH WIND       PRES   REMARKS
HILL AFB       MOCLDY    67  41  39 E21       29.98S
LOGAN          CLEAR     53  47  79 CALM      29.98S
OGDEN          CLEAR     67  41  38 S9        29.96R
PROVO AIRPORT  CLEAR     64  45  48 SW5       30.01F
SALT LAKE CITY PTCLDY    71  43  36 S14       29.94S
VERNAL         CLEAR     54  42  64 W6        30.10S
WENDOVER       CLEAR     64  37  36 CALM      29.93S
HEBER CITY     CLEAR     45  41  87 CALM      30.11S
WEST JORDAN    CLEAR     72  41  33 S16       29.98S

$$

UTZ012>022-026-027-171200-

SOUTHERN UTAH

CITY           SKY/WX    TMP DP  RH WIND       PRES   REMARKS
BRYCE CANYON   MOCLDY    48  43  82 W6        30.26S
CEDAR CITY     MOCLDY    65  52  62 S7        30.10S
MILFORD        PTCLDY    63  48  58 S14       30.04S
MOAB/CYNLANDS  CLEAR     63  42  46 E3        30.01S
PRICE          PTCLDY    59  36  42 CALM      30.11F
ST GEORGE      SUNNY     75  54  46 CALM      29.94S

$$

REGIONAL REPORTS     COLORADO/ARIZONA

CITY           SKY/WX    TMP DP  RH WIND       PRES   REMARKS
CRAIG, CO      CLEAR     42  37  82 CALM      30.19S
GRAND JUNCTION PTCLDY    58  43  57 SE10      30.07S
RIFLE          CLEAR     49  44  83 CALM      30.16S
MONTROSE       PTCLDY    54  42  64 SE8       30.17R
CORTEZ         CLEAR     52  48  86 CALM      30.17S
PAGE, AZ       CLOUDY    74  53  48 S7        30.04S
GRAND CANYON   MOCLDY    60  51  72 E3        30.18F
KINGMAN        PTCLDY    73  58  59 CALM      29.96F
FLAGSTAFF      CLOUDY    57  54  89 N3        30.21S

$$

REGIONAL REPORTS    NEVADA/IDAHO/WYOMING

CITY           SKY/WX    TMP DP  RH WIND       PRES   REMARKS
LAS VEGAS, NV  MOCLDY    81  57  43 SW9       29.83R
ELY            CLEAR     52  37  56 CALM      30.12S
ELKO           CLEAR     54  34  46 CALM      30.01S
POCATELLO, ID  CLEAR     58  44  60 NE6       29.97S
BURLEY         MOCLDY    55  47  74 CALM      29.92R
EVANSTON, WY   MOCLDY    57  36  45 S5        30.18F
ROCK SPRINGS   CLEAR     54  36  50 S6        30.17S

$$



USA.gov is the U.S. government's official web portal to all federal, state and local government web resources and services.